Location: Aldenham
(51.6667°N, 0.3500°W)
Time: 17:11:53
(UTC+00:00)

Vanguard 2 Rocket - Pass Details

Date: 16 February 2026
Orbit: 553 x 3286 km, 32.9° (Epoch: 11 March)

Event Time Altitude Azimuth Distance (km) Brightness Sun altitude
Rises 18:04:45 0° 263° (W) 5,645 13.6 -7.9°
Reaches altitude 10° 18:11:39 10° 240° (WSW) 3,913 11.4 -8.9°
Maximum altitude 18:15:21 13° 218° (SW) 3,287 10.4 -9.5°
Drops below altitude 10° 18:18:27 10° 194° (SSW) 3,137 9.9 -10.0°
Sets 18:22:38 0° 166° (SSE) 3,614 9.9 -10.6°
